Location: Enchastnaves
(44.3667°N, 6.6951°E)
Time: 06:25:06
(UTC+00:00)

Daily predictions for brighter satellites

Satellite Brightness Start Highest point End
(mag) Time Altitude Azimuth Time Altitude Azimuth Time Altitude Azimuth
H-2A R/B 3.0 16:26:12 10° S 16:29:59 77° WSW 16:33:51 10° NNW
Cosmos 1570 Rocket 4.4 16:26:02 10° SSW 16:31:20 70° WNW 16:36:37 10° NNE
Abrixas rocket 1.7 16:30:34 10° WNW 16:33:20 84° NNE 16:36:06 10° ESE
Cosmos 1500 Rocket 3.6 16:29:32 10° N 16:33:55 64° E 16:38:17 10° SSE
Meteor 2-2 Rocket 4.4 16:28:30 10° S 16:34:28 77° E 16:40:21 10° NNE
YAOGAN 6 2.6 16:31:13 10° SSE 16:34:51 66° ENE 16:38:28 10° N
CZ-4C R/B 3.2 16:35:53 10° N 16:39:30 82° WNW 16:43:08 10° SSW
NOSS 2-1 (C) 4.4 16:34:40 10° NW 16:39:51 82° NE 16:47:12 10° SE
Cosmos 405 Rocket 2.7 16:38:13 10° N 16:42:07 70° ENE 16:46:04 10° SSE
ADEOS Rocket 3.8 16:36:59 10° NNE 16:44:39 79° WNW 16:52:24 10° SSW
NOSS 2-1 (D) 4.4 16:40:07 10° NW 16:45:19 89° NE 16:52:44 10° SE
Cosmos 405 3.7 16:41:59 10° SSW 16:45:25 56° WNW 16:48:52 10° N
YAOGAN 1 4.4 16:44:13 10° ENE 16:45:28 11° ENE 16:46:49 10° NE
Cosmos 389 Rocket 3.6 16:43:17 10° SSE 16:46:05 24° E 16:48:54 10° NE
Cosmos 1943 Rocket 3.7 16:43:48 10° N 16:47:10 16° NE 16:50:06 11° ENE
H-2A R/B 2.9 16:45:44 10° S 16:50:04 70° WSW 16:54:19 10° NNW
BREEZE-M DEB (TANK) 2.0 16:49:11 10° W 16:51:26 52° NNW 16:53:03 15° NE
SL-16 R/B 3.3 16:48:38 10° SSE 16:52:59 23° ESE 16:56:52 12° NE
Cosmos 1867 4.4 16:48:19 10° S 16:53:02 31° ESE 16:57:16 12° NE
USA 215 3.4 16:48:00 10° NE 16:54:28 60° SE 17:00:54 10° SW
CZ-2C R/B 4.2 16:51:57 10° ESE 16:55:29 19° ENE 16:58:56 10° NNE
Cosmos 1743 Rocket 3.9 16:51:46 10° NNW 16:56:14 73° W 17:00:39 10° S
COSMO-SKYMED 1 3.6 16:52:54 10° NE 16:56:30 25° E 17:00:03 10° SSE
Okean-O 4.0 16:53:51 10° ESE 16:56:46 18° ENE 16:59:42 10° NNE
Cosmos 2298 Rocket 4.2 16:52:44 10° NNW 16:58:04 82° WSW 17:03:22 10° SSE
Cosmos 2150 Rocket 4.0 16:54:17 10° NNW 16:59:28 86° WSW 17:04:37 10° SSE
AQUARIUS 4.1 16:56:15 10° SSE 17:00:44 80° ENE 17:05:15 10° N
Cosmos 1818 3.5 16:55:22 10° NNW 17:00:52 81° NE 17:06:20 10° SE
Cosmos 1606 3.0 16:59:55 10° SSE 17:03:39 46° E 17:07:24 10° NNE
Sich 1 3.2 17:01:05 10° N 17:05:24 52° ENE 17:09:39 10° SSE
BREEZE-M TANK 3.6 17:00:18 10° WNW 17:06:20 49° SSW 17:09:32 10° SE
Okean O Rocket 1.6 17:03:25 10° SSE 17:07:45 84° WSW 17:12:09 10° NNW
Cosmos 2333 Rocket 3.7 17:03:32 10° WSW 17:08:38 33° NW 17:13:44 10° N
Helios 1A Rocket 4.1 17:07:32 15° E 17:09:21 20° ENE 17:12:20 10° NNE
Cosmos 2366 rocket 4.5 17:04:25 10° N 17:10:04 35° ENE 17:15:38 10° SE
Nadezhda 1 Rocket 4.2 17:04:51 10° SSW 17:11:11 77° W 17:17:36 10° N
ISS -3.6 17:08:13 10° WSW 17:11:34 68° NNW 17:13:33 22° NE
COSMOS 2428 4.0 17:08:45 10° WSW 17:14:03 38° NW 17:19:25 10° NNE
Cosmos 1125 Rocket 3.5 17:09:03 10° NNW 17:14:17 90° SW 17:19:30 10° SSE
Cosmos 1356 3.5 17:11:46 10° N 17:15:07 50° ENE 17:18:27 10° SSE
Feng Yun 1-1 Rocket 4.3 17:09:56 10° SSE 17:15:37 58° ENE 17:21:12 10° N
Cosmos 1805 Rocket 3.6 17:11:51 10° N 17:16:20 89° W 17:20:47 10° S
SAR-Lupe-4 4.2 17:15:58 21° NE 17:17:47 34° E 17:21:04 10° SSE
CZ-4B R/B 1.0 17:17:16 12° NNE 17:20:03 74° ESE 17:23:08 10° S
Cosmos 1151 Rocket 3.6 17:17:02 10° SSE 17:20:55 34° E 17:23:24 19° NE
Cosmos 2278 Rocket 2.8 17:15:53 10° NNW 17:21:28 59° WSW 17:27:01 10° S
Cosmos 1666 Rocket 3.7 17:18:15 10° N 17:22:33 50° ENE 17:26:51 10° SSE
IRS-1C Rocket 4.2 17:19:57 10° SE 17:25:03 53° ENE 17:30:12 10° N
Cosmos 1328 Rocket 4.1 17:22:55 10° SSE 17:26:49 35° E 17:28:37 24° NE
USA 267 3.4 17:21:46 15° ESE 17:27:01 56° NNE 17:33:21 10° NW
Lacrosse 5 rocket 2.3 17:24:51 10° S 17:27:52 24° SE 17:28:08 24° ESE
Cosmos 962 Rocket 4.5 17:22:01 10° N 17:28:22 86° E 17:34:36 10° S
FALCON 9 R/B 3.1 17:32:58 10° SSE 17:33:07 10° SSE 17:33:15 10° SSE
ERS-2 2.1 17:29:45 10° NNE 17:33:24 86° WNW 17:37:03 10° SSW
Cosmos 2341 Rocket 4.0 17:28:24 10° N 17:34:42 86° E 17:41:02 10° S
CZ-2D R/B 3.3 17:31:03 10° SSE 17:34:43 50° ENE 17:38:27 10° N
SAR-Lupe-1 4.1 17:33:32 31° NE 17:34:59 53° ESE 17:38:29 10° S
SL-24 R/B 4.0 17:32:45 22° NNE 17:35:07 49° E 17:38:46 10° S
Meteor 1-25 Rocket 4.2 17:29:53 10° N 17:35:25 59° ENE 17:41:00 10° SSE
CZ-4 R/B 1.8 17:38:23 37° ENE 17:38:23 37° ENE 17:41:44 10° N
Cosmos 2219 Rocket 4.2 17:35:30 10° W 17:39:53 22° NW 17:44:16 10° N
H-2A R/B 4.1 17:38:03 10° N 17:41:33 27° WNW 17:45:05 10° SW
TELKOM 3 3.7 17:39:10 10° WSW 17:41:32 51° NW 17:41:32 51° NW
CZ-3B R/B 3.3 17:40:43 10° S 17:42:22 16° SSE 17:42:22 16° SSE
BREEZE-M DEB (TANK) 2.1 17:41:10 10° WSW 17:43:13 55° WNW 17:43:13 55° WNW
SKYMED 2 3.4 17:40:45 12° NNE 17:44:47 80° ESE 17:49:07 10° S
USA 81 3.9 17:41:01 10° N 17:46:19 75° E 17:51:36 10° S
SL-24 DEB 4.3 17:43:28 10° NNE 17:48:09 53° E 17:52:46 10° S
CREW DRAGON DEMO-1 DEB 3.8 17:45:32 10° NW 17:47:43 36° NNW 17:47:43 36° NNW
Cosmos 2237 Rocket 3.0 17:43:26 10° SW 17:48:52 48° WNW 17:54:20 10° NNE
Cosmos 2285 Rocket 4.0 17:43:24 10° NNW 17:49:47 64° ENE 17:56:04 10° SSE
Cosmos 1939 Rocket 2.9 17:46:34 10° S 17:50:24 72° WSW 17:54:19 10° NNW
Cosmos 1633 Rocket 2.9 17:48:53 10° N 17:53:18 88° E 17:57:39 10° S
H-2A R/B 2.4 17:52:26 37° E 17:53:29 42° ENE 17:58:23 10° N
Cosmos 773 Rocket 4.0 17:52:42 10° S 17:57:50 57° ESE 17:59:15 43° NE
SL-8 Rocket 4.0 17:52:37 10° N 17:58:52 82° W 18:05:08 10° S
Cosmos 864 Rocket 4.4 17:52:33 10° N 17:58:55 79° E 18:05:11 10° SSE
CSL-04 Rocket 4.0 18:01:44 43° NE 18:01:44 43° NE 18:06:20 10° N
USA 281 3.1 17:54:46 10° SSE 18:01:19 81° ENE 18:07:55 10° NNW
Cosmos 2369 Rocket 3.0 17:58:01 10° N 18:02:10 31° NNE 18:02:10 31° NNE
Cosmos 2181 Rocket 4.1 17:57:53 10° S 18:04:19 79° W 18:10:45 10° N
Cosmos 783 Rocket 4.4 17:59:04 10° SSW 18:04:22 90° WNW 18:07:10 29° NNE
MOS 1 Rocket 3.6 18:03:47 32° NNE 18:06:14 62° E 18:11:36 10° S
Cosmos 1821 Rocket 4.4 18:06:39 10° N 18:11:28 41° NE 18:11:28 41° NE
Cosmos 1241 Rocket 4.5 18:08:29 10° NNW 18:15:06 71° NE 18:17:23 43° SE
YAOGAN 1 2.7 18:21:24 69° NNW 18:21:24 69° NNW 18:25:15 10° NNW
SL-08 R/B 4.3 18:21:26 10° N 18:27:38 84° E 18:33:44 10° S
Cosmos 1470 Rocket 4.4 18:24:22 10° NNW 18:35:05 - S 18:27:22 43° NNW
Cosmos 2297 4.1 18:23:05 10° NNW 18:28:43 64° WSW 18:34:09 11° S
Cosmos 1943 Rocket 2.0 18:26:13 10° NNW 18:31:41 82° NE 18:31:41 82° NE
Meteor 1-14 Rocket 4.3 18:26:06 10° N 18:32:04 88° W 18:38:04 10° S
Cosmos 44 3.5 18:26:49 10° NW 18:32:08 79° WSW 18:32:40 70° S
COSMO-SKYMED 1 4.2 18:29:20 13° N 18:32:41 32° WNW 18:36:32 10° SW
Okean-O 3.3 18:28:32 10° S 18:32:51 52° W 18:37:12 10° NNW
CZ-2C R/B 3.5 18:29:53 10° S 18:34:59 58° W 18:39:53 10° NNW
ARGOS 4.2 18:38:30 33° N 18:38:30 33° N 18:41:27 10° N
Cosmos 1867 4.4 18:31:15 10° WSW 18:36:27 45° NW 18:37:58 36° N
SL-16 R/B 2.8 18:31:08 10° SW 18:36:41 55° WNW 18:38:47 36° N
USA 215 3.8 18:35:13 37° NNE 18:37:24 51° NNW 18:43:40 10° W
Helios 1A Rocket 4.4 18:43:48 34° WSW 18:44:17 35° W 18:48:01 10° NNW
ISS -0.6 18:45:57 10° WNW 18:46:31 13° WNW 18:46:31 13° WNW
Lacrosse 5 rocket 4.2 19:03:20 10° WSW 19:03:47 13° WSW 19:03:47 13° WSW
USA 267 3.8 19:09:08 49° SSW 19:10:03 52° SW 19:16:25 10° WNW
CZ-4 R/B 4.2 19:14:24 15° WNW 19:14:24 15° WNW 19:15:54 10° NW
ATLAS CENTAUR R/B 4.3 19:07:49 10° NW 19:25:17 59° WSW 19:27:27 48° SSW
H-2A R/B 3.9 19:33:04 27° W 19:33:04 27° W 19:37:28 10° NW
Cosmos 2369 Rocket 4.3 19:41:58 10° NW 19:43:59 21° NW 19:43:59 21° NW
